CSA7WI LKPR-EETN

Flight info

Callsign CSA7WI
Flight time 1h 42m
Altitude 37000
Route ARTUP DCT TOMTI P733 DIMEX DCT RILAB DCT BOKSU DCT GUNTA DCT KEMET
Aircraft T154/M-SDGRWY/S

Departure

Time 2026-05-05 18:50
Airport Václav Havel Airport Prague (LKPR)

Arrival

Time 2026-05-05 20:33
Airport Lennart Meri Tallinn Airport (EETN)
Time Latitude Longitude Altitude Speed Heading
2026-05-05 18:13 50.10614 14.25951 1254 ft 0 kts 175°
2026-05-05 18:45 50.10613 14.25951 1254 ft 0 kts 175°
2026-05-05 18:45 50.10608 14.25951 1254 ft 1 kts 174°
2026-05-05 18:46 50.10590 14.25954 1254 ft 2 kts 181°
2026-05-05 18:46 50.10567 14.25941 1254 ft 4 kts 215°
2026-05-05 18:46 50.10548 14.25897 1254 ft 5 kts 266°
2026-05-05 18:46 50.10563 14.25829 1254 ft 7 kts 306°
2026-05-05 18:47 50.10604 14.25731 1254 ft 12 kts 300°
2026-05-05 18:47 50.10639 14.25606 1254 ft 12 kts 270°
2026-05-05 18:47 50.10603 14.25482 1254 ft 12 kts 249°
2026-05-05 18:47 50.10583 14.25345 1254 ft 13 kts 259°
2026-05-05 18:48 50.10564 14.25202 1254 ft 13 kts 254°
2026-05-05 18:48 50.10502 14.25127 1254 ft 7 kts 136°
2026-05-05 18:48 50.10484 14.25184 1254 ft 0 kts 128°
2026-05-05 18:49 50.10417 14.25330 1254 ft 49 kts 125°
2026-05-05 18:50 50.10067 14.26058 1254 ft 116 kts 126°
2026-05-05 18:50 50.09472 14.27293 1276 ft 168 kts 125°
2026-05-05 18:50 50.08716 14.28902 1540 ft 195 kts 125°
2026-05-05 18:50 50.07863 14.30627 2085 ft 212 kts 125°
2026-05-05 18:51 50.06904 14.32469 2502 ft 234 kts 126°
2026-05-05 18:51 50.05830 14.34512 3011 ft 253 kts 127°
2026-05-05 18:51 50.04695 14.36637 3650 ft 264 kts 127°
2026-05-05 18:51 50.03556 14.38815 4589 ft 262 kts 128°
2026-05-05 18:52 50.02459 14.40910 5692 ft 248 kts 128°
2026-05-05 18:52 50.01377 14.42940 6282 ft 254 kts 129°
2026-05-05 18:52 50.00214 14.45073 6848 ft 261 kts 130°
2026-05-05 18:52 49.99071 14.47229 7593 ft 260 kts 128°
2026-05-05 18:53 49.98281 14.49781 8123 ft 270 kts 100°
2026-05-05 18:53 49.98372 14.52669 8765 ft 277 kts 73°
2026-05-05 18:53 49.99334 14.55267 9277 ft 288 kts 46°
2026-05-05 18:53 50.00965 14.57108 9856 ft 294 kts 28°
2026-05-05 18:54 50.02784 14.58586 10407 ft 300 kts 26°
2026-05-05 18:54 50.04682 14.60022 10951 ft 307 kts 25°
2026-05-05 18:54 50.06626 14.61374 11556 ft 310 kts 20°
2026-05-05 18:54 50.08665 14.62388 12071 ft 316 kts 15°
2026-05-05 18:55 50.10825 14.63327 12519 ft 325 kts 16°
2026-05-05 18:55 50.12994 14.64313 12953 ft 334 kts 17°
2026-05-05 18:55 50.15202 14.65340 13436 ft 340 kts 17°
2026-05-05 18:55 50.17480 14.66418 13923 ft 346 kts 18°
2026-05-05 18:56 50.19732 14.67484 14491 ft 348 kts 18°
2026-05-05 18:56 50.21996 14.68553 15023 ft 351 kts 17°
2026-05-05 18:56 50.24359 14.69660 15568 ft 356 kts 17°
2026-05-05 18:56 50.26744 14.70775 16171 ft 357 kts 17°
2026-05-05 18:57 50.29103 14.71881 16728 ft 360 kts 17°
2026-05-05 18:57 50.31501 14.73006 17224 ft 364 kts 17°
2026-05-05 18:57 50.33936 14.74151 17611 ft 371 kts 17°
2026-05-05 18:57 50.36397 14.75309 17966 ft 379 kts 17°
2026-05-05 18:58 50.38931 14.76503 18318 ft 387 kts 16°
2026-05-05 18:58 50.41484 14.77702 18757 ft 393 kts 16°
2026-05-05 18:58 50.44133 14.78947 19253 ft 399 kts 16°
2026-05-05 18:58 50.46796 14.80205 19794 ft 402 kts 16°
2026-05-05 18:59 50.49469 14.81468 20347 ft 406 kts 16°
2026-05-05 18:59 50.52111 14.82718 20930 ft 408 kts 16°
2026-05-05 18:59 50.54823 14.84004 21517 ft 410 kts 16°
2026-05-05 18:59 50.57576 14.85311 21918 ft 417 kts 16°
2026-05-05 19:00 50.60366 14.86637 22330 ft 423 kts 16°
2026-05-05 19:00 50.63151 14.87964 22793 ft 427 kts 16°
2026-05-05 19:00 50.65977 14.89313 23463 ft 427 kts 16°
2026-05-05 19:00 50.68704 14.91068 23772 ft 436 kts 32°
2026-05-05 19:01 50.71055 14.94054 24503 ft 433 kts 43°
2026-05-05 19:01 50.73218 14.97286 24824 ft 441 kts 43°
2026-05-05 19:01 50.75441 15.00518 25426 ft 442 kts 42°
2026-05-05 19:01 50.77713 15.03795 25852 ft 447 kts 42°
2026-05-05 19:02 50.79950 15.07029 26359 ft 449 kts 42°
2026-05-05 19:02 50.82260 15.10376 26860 ft 453 kts 42°
2026-05-05 19:02 50.84567 15.13722 27385 ft 455 kts 42°
2026-05-05 19:02 50.86875 15.17073 27821 ft 460 kts 42°
2026-05-05 19:03 50.89186 15.20433 28273 ft 463 kts 42°
2026-05-05 19:03 50.91568 15.23904 28876 ft 464 kts 42°
2026-05-05 19:03 50.93926 15.27346 29444 ft 465 kts 42°
2026-05-05 19:03 50.96303 15.30691 30185 ft 462 kts 38°
2026-05-05 19:04 50.98821 15.33747 30819 ft 462 kts 36°
2026-05-05 19:04 51.01163 15.36496 31454 ft 461 kts 36°
2026-05-05 19:04 51.03799 15.39652 32255 ft 458 kts 37°
2026-05-05 19:04 51.06256 15.42631 32925 ft 457 kts 37°
2026-05-05 19:05 51.08772 15.45701 33478 ft 458 kts 37°
2026-05-05 19:05 51.11250 15.48722 34155 ft 457 kts 37°
2026-05-05 19:05 51.13760 15.51766 34703 ft 459 kts 36°
2026-05-05 19:05 51.16222 15.54760 35189 ft 459 kts 37°
2026-05-05 19:06 51.18739 15.57838 35850 ft 454 kts 37°
2026-05-05 19:06 51.21192 15.60847 36291 ft 455 kts 36°
2026-05-05 19:06 51.23691 15.63914 36428 ft 464 kts 36°
2026-05-05 19:06 51.26216 15.67021 36643 ft 471 kts 37°
2026-05-05 19:07 51.28814 15.70241 36918 ft 476 kts 37°
2026-05-05 19:07 51.31435 15.73488 37268 ft 480 kts 37°
2026-05-05 19:07 51.34084 15.76763 37346 ft 491 kts 37°
2026-05-05 19:07 51.36821 15.80152 37220 ft 503 kts 37°
2026-05-05 19:08 51.39571 15.83563 37589 ft 507 kts 37°
2026-05-05 19:08 51.42327 15.86982 37537 ft 516 kts 37°
2026-05-05 19:08 51.48060 15.94113 37546 ft 531 kts 37°
2026-05-05 19:09 51.53804 16.01288 37505 ft 525 kts 37°
2026-05-05 19:09 51.59434 16.08336 37380 ft 520 kts 37°
2026-05-05 19:10 51.62236 16.11944 37226 ft 518 kts 42°
2026-05-05 19:10 51.64582 16.16278 37009 ft 517 kts 54°
2026-05-05 19:10 51.68595 16.25641 36808 ft 511 kts 54°
2026-05-05 19:11 51.72665 16.34993 36630 ft 506 kts 54°
2026-05-05 19:11 51.76590 16.44073 36629 ft 495 kts 54°
2026-05-05 19:12 51.78531 16.48572 36620 ft 484 kts 55°
2026-05-05 19:12 51.80417 16.52956 36607 ft 474 kts 55°
2026-05-05 19:12 51.84123 16.61585 36539 ft 470 kts 54°
2026-05-05 19:13 51.87834 16.70263 36757 ft 473 kts 56°
2026-05-05 19:13 51.91561 16.79027 36768 ft 481 kts 56°
2026-05-05 19:14 51.95354 16.87959 36808 ft 492 kts 56°
2026-05-05 19:14 51.99235 16.97127 36834 ft 503 kts 56°
2026-05-05 19:15 52.03140 17.06390 36834 ft 512 kts 56°
2026-05-05 19:15 52.07180 17.16001 36821 ft 520 kts 56°
2026-05-05 19:16 52.11251 17.25713 36774 ft 528 kts 55°
2026-05-05 19:16 52.15389 17.35551 36769 ft 531 kts 55°
2026-05-05 19:17 52.19463 17.45341 36776 ft 526 kts 55°
2026-05-05 19:17 52.23474 17.55032 36777 ft 523 kts 55°
2026-05-05 19:18 52.27545 17.64898 36780 ft 533 kts 55°
2026-05-05 19:18 52.31596 17.74794 36745 ft 531 kts 56°
2026-05-05 19:19 52.35660 17.84731 36761 ft 532 kts 56°
2026-05-05 19:19 52.39757 17.94783 36782 ft 532 kts 56°
2026-05-05 19:20 52.43836 18.04827 36789 ft 531 kts 56°
2026-05-05 19:20 52.47907 18.14886 36786 ft 531 kts 55°
2026-05-05 19:21 52.51932 18.24875 36785 ft 531 kts 55°
2026-05-05 19:21 52.56003 18.35019 36786 ft 532 kts 55°
2026-05-05 19:22 52.60004 18.45029 36782 ft 531 kts 55°
2026-05-05 19:22 52.64022 18.55121 36789 ft 532 kts 54°
2026-05-05 19:23 52.68028 18.65224 36785 ft 530 kts 56°
2026-05-05 19:23 52.72024 18.75368 36756 ft 531 kts 55°
2026-05-05 19:24 52.76033 18.85573 36771 ft 533 kts 55°
2026-05-05 19:24 52.80004 18.95716 36768 ft 532 kts 55°
2026-05-05 19:25 52.84013 19.05985 36762 ft 532 kts 55°
2026-05-05 19:25 52.87980 19.16190 36762 ft 532 kts 55°
2026-05-05 19:26 52.91951 19.26448 36770 ft 531 kts 55°
2026-05-05 19:26 52.95913 19.36723 36762 ft 532 kts 55°
2026-05-05 19:27 52.99867 19.47022 36763 ft 532 kts 54°
2026-05-05 19:27 53.03818 19.57353 36765 ft 532 kts 55°
2026-05-05 19:28 53.07918 19.67486 36748 ft 531 kts 53°
2026-05-05 19:28 53.11842 19.77952 36714 ft 534 kts 56°
2026-05-05 19:29 53.15800 19.88298 36734 ft 535 kts 55°
2026-05-05 19:29 53.19774 19.98645 36747 ft 535 kts 55°
2026-05-05 19:30 53.23732 20.08981 36755 ft 534 kts 55°
2026-05-05 19:30 53.27699 20.19381 36752 ft 533 kts 55°
2026-05-05 19:31 53.31641 20.29754 36748 ft 532 kts 55°
2026-05-05 19:31 53.35544 20.40070 36863 ft 534 kts 55°
2026-05-05 19:32 53.39475 20.50501 36863 ft 534 kts 55°
2026-05-05 19:32 53.43426 20.61031 36849 ft 532 kts 55°
2026-05-05 19:33 53.47346 20.71537 36816 ft 535 kts 56°
2026-05-05 19:33 53.51260 20.82083 36824 ft 536 kts 56°
2026-05-05 19:34 53.55158 20.92609 36828 ft 535 kts 56°
2026-05-05 19:35 53.61041 21.08568 36836 ft 535 kts 56°
2026-05-05 19:35 53.64908 21.19116 36841 ft 535 kts 56°
2026-05-05 19:36 53.68793 21.29760 36830 ft 535 kts 56°
2026-05-05 19:36 53.72645 21.40358 36832 ft 534 kts 56°
2026-05-05 19:37 53.75773 21.51635 36836 ft 536 kts 69°
2026-05-05 19:37 53.78322 21.63413 36843 ft 537 kts 66°
2026-05-05 19:38 53.81667 21.74505 36819 ft 534 kts 57°
2026-05-05 19:38 53.85608 21.85161 36829 ft 538 kts 56°
2026-05-05 19:39 53.89603 21.95694 36834 ft 536 kts 55°
2026-05-05 19:39 53.93648 22.06337 36849 ft 538 kts 56°
2026-05-05 19:40 53.97645 22.16887 36844 ft 535 kts 55°
2026-05-05 19:40 54.01675 22.27566 36855 ft 535 kts 56°
2026-05-05 19:41 54.05666 22.38186 36864 ft 537 kts 56°
2026-05-05 19:41 54.09652 22.48842 36870 ft 537 kts 56°
2026-05-05 19:42 54.13642 22.59481 36846 ft 538 kts 56°
2026-05-05 19:42 54.17595 22.70108 36832 ft 539 kts 57°
2026-05-05 19:43 54.21592 22.80956 36851 ft 539 kts 57°
2026-05-05 19:43 54.25541 22.91695 36864 ft 539 kts 57°
2026-05-05 19:44 54.29812 23.02165 36827 ft 535 kts 41°
2026-05-05 19:44 54.32706 23.05999 36831 ft 526 kts 25°
2026-05-05 19:44 54.36012 23.08391 36839 ft 519 kts
2026-05-05 19:45 54.43035 23.11004 36832 ft 525 kts 20°
2026-05-05 19:45 54.46159 23.14095 36833 ft 530 kts 36°
2026-05-05 19:45 54.48785 23.18617 36840 ft 539 kts 52°
2026-05-05 19:45 54.50644 23.24148 36853 ft 541 kts 68°
2026-05-05 19:46 54.51620 23.30337 36839 ft 540 kts 84°
2026-05-05 19:46 54.51632 23.36748 36854 ft 536 kts 101°
2026-05-05 19:46 54.51052 23.43000 36877 ft 537 kts 95°
2026-05-05 19:46 54.51234 23.49414 36854 ft 541 kts 79°
2026-05-05 19:47 54.52287 23.55582 36873 ft 540 kts 65°
2026-05-05 19:47 54.54028 23.61172 36874 ft 540 kts 53°
2026-05-05 19:47 54.56310 23.66241 36872 ft 538 kts 44°
2026-05-05 19:47 54.59119 23.70390 36801 ft 530 kts 28°
2026-05-05 19:48 54.62391 23.73131 36819 ft 521 kts 13°
2026-05-05 19:48 54.69358 23.75267 36886 ft 513 kts 359°
2026-05-05 19:49 54.76442 23.75670 36882 ft 511 kts 355°
2026-05-05 19:49 54.83557 23.75739 36859 ft 511 kts 355°
2026-05-05 19:50 54.90631 23.75746 36856 ft 509 kts 354°
2026-05-05 19:50 54.97681 23.75739 36846 ft 510 kts 354°
2026-05-05 19:51 55.04724 23.75732 36853 ft 512 kts 354°
2026-05-05 19:51 55.11792 23.75725 36809 ft 513 kts 354°
2026-05-05 19:52 55.18914 23.75722 36791 ft 514 kts 354°
2026-05-05 19:52 55.26067 23.75717 36818 ft 514 kts 354°
2026-05-05 19:53 55.33155 23.75710 36837 ft 514 kts 354°
2026-05-05 19:53 55.40302 23.75701 36828 ft 514 kts 354°
2026-05-05 19:54 55.47401 23.75693 36846 ft 515 kts 354°
2026-05-05 19:54 55.54544 23.75686 36838 ft 514 kts 354°
2026-05-05 19:55 55.61669 23.75677 36840 ft 515 kts 354°
2026-05-05 19:55 55.68781 23.75668 36858 ft 516 kts 354°
2026-05-05 19:56 55.75932 23.75661 36842 ft 514 kts 354°
2026-05-05 19:56 55.83002 23.75652 36861 ft 516 kts 354°
2026-05-05 19:57 55.90137 23.75646 36839 ft 514 kts 354°
2026-05-05 19:57 55.97248 23.75631 36847 ft 516 kts 354°
2026-05-05 19:58 56.04400 23.75626 36848 ft 514 kts 354°
2026-05-05 19:58 56.11487 23.75618 36821 ft 516 kts 354°
2026-05-05 19:59 56.18628 23.75618 36802 ft 516 kts 355°
2026-05-05 19:59 56.25745 23.75611 36830 ft 515 kts 354°
2026-05-05 20:00 56.32888 23.75602 36851 ft 516 kts 355°
2026-05-05 20:00 56.40035 23.76360 36830 ft 523 kts
2026-05-05 20:01 56.47196 23.78922 36859 ft 525 kts
2026-05-05 20:01 56.54314 23.81309 36859 ft 523 kts
2026-05-05 20:02 56.61416 23.83689 36847 ft 522 kts
2026-05-05 20:02 56.68510 23.86073 36868 ft 523 kts
2026-05-05 20:03 56.75640 23.88480 36852 ft 522 kts
2026-05-05 20:03 56.82750 23.90888 36863 ft 523 kts
2026-05-05 20:04 56.89867 23.93310 36868 ft 522 kts
2026-05-05 20:04 56.96985 23.95738 36868 ft 522 kts
2026-05-05 20:05 57.04068 23.98167 36867 ft 521 kts
2026-05-05 20:05 57.11157 24.00604 36840 ft 523 kts
2026-05-05 20:06 57.18301 24.03067 36814 ft 522 kts
2026-05-05 20:06 57.25436 24.05538 36841 ft 524 kts
2026-05-05 20:07 57.32529 24.08124 36830 ft 528 kts 12°
2026-05-05 20:07 57.35889 24.10754 36830 ft 528 kts 27°
2026-05-05 20:07 57.38901 24.14560 36779 ft 520 kts 34°
2026-05-05 20:07 57.41679 24.18658 36560 ft 514 kts 36°
2026-05-05 20:08 57.44401 24.22879 36299 ft 509 kts 37°
2026-05-05 20:08 57.47068 24.27054 36028 ft 506 kts 37°
2026-05-05 20:08 57.49740 24.31271 35700 ft 506 kts 37°
2026-05-05 20:08 57.52416 24.35537 35347 ft 508 kts 37°
2026-05-05 20:09 57.55065 24.39775 34992 ft 507 kts 34°
2026-05-05 20:09 57.57989 24.43315 34499 ft 500 kts 19°
2026-05-05 20:09 57.61215 24.45379 33877 ft 493 kts
2026-05-05 20:09 57.64549 24.46448 33419 ft 486 kts
2026-05-05 20:10 57.67903 24.47120 32852 ft 486 kts 358°
2026-05-05 20:10 57.71274 24.47613 32228 ft 487 kts 357°
2026-05-05 20:10 57.74647 24.48027 31581 ft 489 kts 356°
2026-05-05 20:10 57.78014 24.48408 31005 ft 488 kts 356°
2026-05-05 20:11 57.81387 24.48781 30622 ft 483 kts 356°
2026-05-05 20:11 57.84692 24.49139 30113 ft 481 kts 356°
2026-05-05 20:11 57.87991 24.49493 29700 ft 476 kts 356°
2026-05-05 20:11 57.91285 24.49846 29217 ft 473 kts 356°
2026-05-05 20:12 57.94561 24.50195 28758 ft 469 kts 356°
2026-05-05 20:12 57.97789 24.50540 28256 ft 465 kts 356°
2026-05-05 20:12 58.00973 24.50881 27768 ft 462 kts 355°
2026-05-05 20:12 58.04158 24.51222 27237 ft 459 kts 355°
2026-05-05 20:13 58.07295 24.51559 26718 ft 455 kts 355°
2026-05-05 20:13 58.10460 24.51900 26172 ft 452 kts 355°
2026-05-05 20:13 58.13549 24.52232 25464 ft 453 kts 355°
2026-05-05 20:13 58.15428 24.52437 25173 ft 450 kts 355°
2026-05-05 20:14 58.15545 24.52450 25156 ft 449 kts 355°
2026-05-05 20:14 58.18660 24.52792 24599 ft 446 kts 355°
2026-05-05 20:14 58.21737 24.53126 24032 ft 443 kts 355°
2026-05-05 20:14 58.24759 24.53456 23515 ft 438 kts 355°
2026-05-05 20:15 58.27802 24.53788 22954 ft 434 kts 355°
2026-05-05 20:15 58.30764 24.54112 22399 ft 430 kts 355°
2026-05-05 20:15 58.33735 24.54435 21792 ft 426 kts 355°
2026-05-05 20:15 58.36653 24.54755 21214 ft 422 kts 355°
2026-05-05 20:16 58.39569 24.55075 20621 ft 418 kts 354°
2026-05-05 20:16 58.42441 24.55390 19993 ft 414 kts 354°
2026-05-05 20:16 58.45299 24.55703 19396 ft 410 kts 354°
2026-05-05 20:16 58.48125 24.56015 18771 ft 406 kts 354°
2026-05-05 20:17 58.50939 24.56324 18162 ft 403 kts 354°
2026-05-05 20:17 58.53694 24.56628 17560 ft 400 kts 355°
2026-05-05 20:17 58.56462 24.56934 16956 ft 396 kts 355°
2026-05-05 20:17 58.59173 24.57236 16383 ft 392 kts 355°
2026-05-05 20:18 58.61865 24.57533 15744 ft 389 kts 355°
2026-05-05 20:18 58.64542 24.57831 15185 ft 383 kts 355°
2026-05-05 20:18 58.67146 24.58128 14824 ft 373 kts 355°
2026-05-05 20:18 58.69718 24.58420 14416 ft 364 kts 355°
2026-05-05 20:19 58.72205 24.58988 13958 ft 368 kts
2026-05-05 20:19 58.74557 24.60961 13534 ft 370 kts 23°
2026-05-05 20:19 58.76756 24.63407 13140 ft 363 kts 23°
2026-05-05 20:19 58.78923 24.65753 12727 ft 356 kts 23°
2026-05-05 20:20 58.81093 24.68062 12264 ft 352 kts 23°
2026-05-05 20:20 58.83192 24.70299 11813 ft 347 kts 23°
2026-05-05 20:20 58.85299 24.72543 11342 ft 343 kts 23°
2026-05-05 20:20 58.87370 24.74746 10910 ft 337 kts 23°
2026-05-05 20:21 58.89387 24.76895 10517 ft 331 kts 23°
2026-05-05 20:21 58.91379 24.79018 10123 ft 325 kts 23°
2026-05-05 20:21 58.93339 24.81108 9721 ft 320 kts 24°
2026-05-05 20:21 58.95259 24.83161 9366 ft 313 kts 23°
2026-05-05 20:22 58.97141 24.85175 9036 ft 305 kts 24°
2026-05-05 20:22 58.98964 24.87130 8754 ft 296 kts 24°
2026-05-05 20:22 59.00730 24.89025 8540 ft 285 kts 24°
2026-05-05 20:22 59.02423 24.90845 8306 ft 276 kts 23°
2026-05-05 20:23 59.04112 24.92653 7894 ft 274 kts 24°
2026-05-05 20:23 59.05747 24.94409 7583 ft 269 kts 24°
2026-05-05 20:23 59.07377 24.96164 7217 ft 265 kts 24°
2026-05-05 20:23 59.08962 24.97872 6881 ft 261 kts 24°
2026-05-05 20:24 59.10543 24.99577 6518 ft 257 kts 24°
2026-05-05 20:24 59.12094 25.01236 6150 ft 255 kts 24°
2026-05-05 20:24 59.13661 25.02911 5909 ft 261 kts 25°
2026-05-05 20:24 59.15220 25.04598 5718 ft 255 kts 25°
2026-05-05 20:25 59.16754 25.06260 5469 ft 249 kts 25°
2026-05-05 20:25 59.18272 25.07904 5188 ft 246 kts 24°
2026-05-05 20:25 59.19742 25.09498 4895 ft 243 kts 24°
2026-05-05 20:25 59.21214 25.11096 4637 ft 239 kts 24°
2026-05-05 20:26 59.22639 25.12647 4375 ft 235 kts 24°
2026-05-05 20:26 59.24053 25.14187 4084 ft 233 kts 24°
2026-05-05 20:26 59.25456 25.15716 3792 ft 231 kts 24°
2026-05-05 20:26 59.26869 25.17255 3519 ft 231 kts 24°
2026-05-05 20:27 59.28271 25.18788 3263 ft 231 kts 24°
2026-05-05 20:27 59.29660 25.20306 3018 ft 230 kts 24°
2026-05-05 20:27 59.31067 25.21844 2773 ft 230 kts 24°
2026-05-05 20:27 59.32457 25.23331 2539 ft 227 kts 18°
2026-05-05 20:28 59.33926 25.23944 2425 ft 208 kts 355°
2026-05-05 20:28 59.35324 25.23890 2307 ft 197 kts 354°
2026-05-05 20:28 59.36676 25.23871 2154 ft 189 kts 356°
2026-05-05 20:28 59.37947 25.23918 2151 ft 179 kts 356°
2026-05-05 20:29 59.39207 25.23958 2222 ft 187 kts 356°
2026-05-05 20:29 59.40545 25.23494 2338 ft 210 kts 329°
2026-05-05 20:29 59.41620 25.21394 2449 ft 234 kts 297°
2026-05-05 20:29 59.41962 25.18146 2594 ft 260 kts 268°
2026-05-05 20:30 59.41643 25.14535 2789 ft 270 kts 262°
2026-05-05 20:30 59.41376 25.11045 2789 ft 247 kts 269°
2026-05-05 20:30 59.41294 25.07812 2603 ft 235 kts 272°
2026-05-05 20:30 59.41249 25.04658 2068 ft 227 kts 270°
2026-05-05 20:31 59.41169 25.01704 1660 ft 213 kts 271°
2026-05-05 20:31 59.41181 24.98890 1405 ft 201 kts 274°
2026-05-05 20:31 59.41232 24.96136 1129 ft 206 kts 274°
2026-05-05 20:31 59.41297 24.93223 957 ft 223 kts 272°
2026-05-05 20:32 59.41308 24.90162 551 ft 224 kts 270°
2026-05-05 20:32 59.41319 24.87173 220 ft 213 kts 270°
2026-05-05 20:32 59.41324 24.84499 155 ft 161 kts 269°
2026-05-05 20:32 59.41324 24.82886 153 ft 76 kts 269°
2026-05-05 20:33 59.41325 24.82350 152 ft 13 kts 271°
2026-05-05 20:33 59.41327 24.82135 149 ft 17 kts 271°
2026-05-05 20:33 59.41328 24.82006 149 ft 2 kts 271°
2026-05-05 20:33 59.41333 24.81963 149 ft 4 kts 300°
2026-05-05 20:34 59.41356 24.81924 149 ft 4 kts 327°
2026-05-05 20:34 59.41385 24.81898 150 ft 4 kts 353°
2026-05-05 20:34 59.41419 24.81902 150 ft 5 kts
2026-05-05 20:34 59.41452 24.81905 151 ft 4 kts 357°
2026-05-05 20:35 59.41486 24.81891 152 ft 4 kts 328°
2026-05-05 20:35 59.41505 24.81830 152 ft 6 kts 279°
2026-05-05 20:35 59.41503 24.81732 152 ft 8 kts 265°
2026-05-05 20:35 59.41501 24.81605 152 ft 10 kts 270°
2026-05-05 20:36 59.41502 24.81453 153 ft 11 kts 271°
2026-05-05 20:36 59.41500 24.81306 155 ft 9 kts 268°
2026-05-05 20:36 59.41501 24.81195 156 ft 2 kts 272°
2026-05-05 20:36 59.41501 24.81168 156 ft 2 kts 275°
2026-05-05 20:37 59.41502 24.81134 156 ft 2 kts 275°
2026-05-05 20:37 59.41503 24.81117 157 ft 1 kts 275°
2026-05-05 20:37 59.41504 24.81092 157 ft 1 kts 275°
2026-05-05 20:37 59.41507 24.81067 158 ft 1 kts 296°
2026-05-05 20:38 59.41512 24.81054 158 ft 1 kts 323°
2026-05-05 20:38 59.41523 24.81044 158 ft 2 kts 344°
2026-05-05 20:38 59.41541 24.81041 159 ft 2 kts
2026-05-05 20:38 59.41563 24.81044 159 ft 3 kts 359°
2026-05-05 20:39 59.41583 24.81044 160 ft 2 kts 359°
2026-05-05 20:39 59.41587 24.81044 160 ft 0 kts 359°